Location: *
(43.0833°N, 13.0500°E)
Time: 12:30:16
(UTC+00:00)

NOSS 2-3 (E) - Pass Details

Date: 15 November 2019
Orbit: 595 x 1616 km, 63.4° (Epoch: 03 December)

Event Time Altitude Azimuth Distance (km) Brightness Sun altitude
Rises 18:01:51 0° 227° (SW) 2,834 7.7 -25.1°
Reaches altitude 10° 18:04:01 10° 231° (SW) 1,966 6.8 -25.5°
Maximum altitude 18:08:17 57° 311° (NW) 785 4.2 -26.3°
Enters shadow 18:08:54 52° 343° (NNW) 838 4.2 -26.4°
